User: anonymous   Login
Location: Passo di Treia
(43.2833°N, 13.3333°E)
Time: 08:35:59
(UTC+00:00)
Language:

Cosmos 1092 Rocket - Orbit

View from above orbital plane
View from above orbital plane
View from above satellite
View from above satellite

Ground track
Ground track

The orbit data is extracted from the following two-line orbital elements,

1 11327U 79030B   20056.16764608 -.00000024 +00000-0 -39605-4 0  9999
2 11327 082.9478 286.0100 0026792 309.8473 165.0418 13.76949442054194
Epoch (UTC): 25 February 2020 04:01:24
Eccentricity: 0.0026792
inclination: 82.9478°
perigee height: 955 km
apogee height: 994 km
right ascension of ascending node: 286.0100°
argument of perigee: 309.8473°
revolutions per day: 13.76949442
mean anomaly at epoch: 165.0418°
orbit number at epoch: 5419

The dashed part of the orbit path shows where the satellite is in the earth's shadow,  

DLR